カタログに戻る

FENGYUN 1C DEB

運用中SSO
NORAD 32414·DEBRIS·🇨🇳 China

打ち上げ May 10, 1999 から Taiyuan Satellite Launch Center

Loading…

次のパス (今後24時間)

TLE

最新Source: Space-Track

元期: Sep 13, 2026, 11:30 UTC

1 32414U 99025DAA 26256.47942022  .00001444  00000-0  69713-3 0  9992
2 32414  98.8406 331.6899 0043898 289.7366  69.9078 14.19701231976294

AllMySatでFENGYUN 1C DEBをリアルタイム追跡

Download on the App Store